Погода в Биробиджане

Погода в Биробиджане : погода сейчас, прогноз погоды и архив. Всё, что Вы хотите узнать о погоде в Биробиджане!

Хотите узнать прогноз погоды в Биробиджане? Тогда Вам сюда: Погода в Биробиджане

Поиск расширенной информации на нашем сайте:

Другие новости

Новости СМИ2

Главная страница сайта

Новости сайта

03.07.2017

Напоминаем, что на нашем специализированном сайте Метеоцентр.Азия вы можете получить высокодетализированные автоматические прогнозы погоды по пунктам России, СНГ и мира в авиационном формате (включающие направление и скорость ветра, видимость, явления погоды, количество и форму облачности, нижнюю и верхнюю границу облачности).


Погода в Биробиджане - сегодня

Время (UTC), дата Ветер
(°,м/с) 
Видим.   Явления Облачность Т
(°С)
Тd
(°С)
f(%) Тe
(°С)
Pmin
(гПа)
dP
(гПа)
Po
(мм)
O2
(г/м3)
Тmin Tmax R s Состояние
почвы
00 17.08.17 тихо ()   20000 м    9/9 1000 м 
[Sc]
+21.9 +16.2 70 +33  1016.1  0.3  755  278           
03 17.08.17 260 (З) 20000 м    8/3 600 м кучево-дожд., средняя, верхняя 
[Cb cap|Ac trans|Cc]
+24.4 +15.6 58 +34  1014.9  -1.1  754  276           
06 17.08.17 200 (Ю) 20000 м    9/8 600 м кучево-дожд., средняя 
[Cb cap|Ac As]
+24.8 +16.5 60 +36  1013.6  -1.3  753  275           
09 17.08.17 200 (Ю) 20000 м    3/1 1000 м средняя 
[Sc diur, vesp|Ac trans]
+24.1 +17.8 68 +38  1012.9  -0.7  753  275    +26       
12 17.08.17 140 (ЮВ) 20000 м    10/4 600 м кучево-дожд., средняя 
[Cb cap|Ac und]
+19.7 +17.7 88 +35  1013.5  0.5  753  279           
15 17.08.17 230 (ЮЗ) 20000 м    1/0 средняя 
[Ac lent]
+18.8 +16.8 88 +32  1013.1  -0.5  753  280           
18 17.08.17 тихо ()   20000 м    6/1 1000 м средняя 
[Sc|Ac As]
+17.3 +16.4 94 +28  1013.4  0.2  753  282           
21 17.08.17 тихо ()   20000 м    3/0 средняя 
[Ac lent]
+17.6 +17.4 99 +31  1013.3  -0.1  753  281  +16.9        влажная 
00 18.08.17 030 (СВ) 20000 м    9/5 600 м средняя 
[St|Ac trans]
+20.9 +18.2 85 +35  1014  0.8  754  278           
03 18.08.17 090 (В) 20000 м    6/6 600 м кучево-дожд. 
[Cb cap]
+25 +19.3 71 +42  1013.4  -0.5  753  273           
06 18.08.17 160 (Ю) 20000 м    9/5 600 м кучево-дожд., средняя, верхняя 
[Cb cap|Ac trans|Cc]
+26.8 +19.7 65 +45  1012  -1.3  752  271           
09 18.08.17 100 (В) 20000 м    6/3 1000 м средняя, верхняя 
[Sc|Ac lent|Cc]
+25.2 +20.7 76 +45  1011.8  -0.2  752  272    +27.6       
12 18.08.17 120 (ЮВ) 20000 м    9/6 600 м кучево-дожд., средняя 
[Cb cap|Ac lent]
+22.6 +20.1 86 +41  1012.8  0.9  753  275           
15 18.08.17 тихо ()   20000 м    ясно 
+19.4 +19.3 99 +36  1013  0.1  753  279           
18 18.08.17 270 (З) 20000 м    10/4 600 м кучево-дожд., средняя 
[Cb cap|As trans]
+20 +19.8 99 +38  1012.8  -0.2  753  278           
21 18.08.17 260 (З) 0500 м  туман  10/10 600 м 
[St]
+19.4 +19.3 99 +38  1012.8  -0.1  753  278  +19.1        сухая 
00 19.08.17 220 (ЮЗ) 10 км  в посл. час туман  9/9 600 м 
[St]
+22.5 +19.8 85 +41  1013.1  0.3  753  275           
03 19.08.17 190 (Ю) 20000 м    9/6 600 м кучево-дожд., верхняя 
[Cb cap|Ci fib]
+29 +21.2 63 +50  1011.3  -1.6  752  269           
06 19.08.17 290 (З) 20000 м  в посл. час гроза{ливн. осадки}  9/8 600 м кучево-дожд., средняя, верхняя 
[Cb cap|Ac trans|Ci fib]
+22.5 +20.6 89 +42  1011.5  752  275           
09 19.08.17 300 (СЗ) 20000 м    9/5 600 м кучево-дожд., верхняя 
[Cb cap|Ci fib]
+23.4 +20 81 +42  1010.6  -0.9  751  274    +29.2     
12 19.08.17 тихо ()   20000 м    3/3 600 м кучево-дожд. 
[Cb cap]
+20.6 +20.4 99 +40  1011.7  752  277           
15 19.08.17 тихо ()   20000 м    ясно 
+19.6 +19.4 99 +37  1011.6  0.1  752  278           
18 19.08.17 тихо ()   20000 м    ясно 
+17.6 +17.4 99 +31  1011.5  -0.2  752  281           
21 19.08.17 360 (С) 0500 м  туман  3/0 верхняя 
[Cc]
+17.6 +17.5 99 +32  1012  0.5  752  281  +16.8        влажная 
00 20.08.17 тихо ()   20000 м  {туман}  4/0 верхняя 
[Ci]
+24 +19.8 77 +42  1011.4  -0.3  752  274           
Время (UTC), дата Ветер
(°,м/с) 
Видим.   Явления Облачность Т
(°С)
Тd
(°С)
f(%) Тe
(°С)
Pmin
(гПа)
dP
(гПа)
Po
(мм)
O2
(г/м3)
Тmin Tmax R s Состояние
почвы

Для получения пояснительной информации подведите курсор к названию столбца.

ПОГОДА в Биробиджане - архив

Всё, что Вы хотите узнать о погоде в Биробиджане - удобно и подробно!

Выберите нужную дату (начиная с 1 января 2015* года) и нажмите кнопку "Найти".
Будут отображены архивные сводки погоды по пункту Биробиджан, начиная с указанной даты.


Отображать данные в формате CSV (для использования в таблицах Excel)


Внимание! Наш архив погоды предназначен исключительно для личного некоммерческого использования в познавательных целях. Если Вам необходимы официальные справки о состоянии погоды (для производственных, юридических, коммерческих и т.п. целей), обращайтесь в органы Росгидромета.

*Примечание: данная дата относится к архиву по метеостанциям СССР (Россия, СНГ, Балтия).
Архив по метеостанциям Зарубежной Европы и Азии (кроме Китая) хранится 10 дней, по другим регионам земного шара (Китай, Африка, Америка, Австралия, Океания) - 1 день.

Биробиджан - район местоположения метеостанции


Название, широта, долгота, высота метеостанции:
Биробиджан 48.7°ш. 132.9°д. 80 м над ур. моря [Российская Федерация]

Дополнительная информация

В oтличие oт бoльшинства пoгoдных сайтoв мы публикуем пoдрoбную метеoинфoрмацию в детальнoм прoфессиoнальнoм фoрмате.

Характеристики температуры и влажнoсти вoздуха измеряются на высoте 2 м в тени вдали oт зданий и деревьев.
Скoрoсть ветра измеряется на высoте 10 м (на урoвне рoста челoвека скoрoсть ветра ниже в 1.5-2 раза). Если метеoстанция нахoдится в гoрoде или в лесу, тo скoрoсть ветра занижена на 2-4 м/с пo сравнению с oткрытым местoм. Скoрoсть ветра над акватoриями крупных рек и oзёр, а также на вершинах хoлмoв на 2-5 м/с выше, чем в oбычных услoвиях.
Атмoсфернoе давление в разных тoчках местнoсти мoжет значительнo oтличаться oт давления на метеoстанции, в зависимoсти oт услoвий рельефа (при пoдъёме на 10 м давление пoнижается примернo на 1 мм рт.ст.).